FW8756 Weather Reports


Display with metric or nautical units.
time (UTC)temp
F
wind
direction
speed
MPH
gust
MPH
rain 1hr
in
rain 24hr
in
rain mn
in
humidity
%
barometer
mb
20260906161839 85 151 0.0 0.0 0.00 0.00 0.00 83 1013.4
20260906161338 85 148 0.0 0.0 0.00 0.00 0.00 82 1013.6
20260906160837 86 142 0.0 0.0 0.00 0.00 0.00 81 1013.6
20260906160331 86 160 0.0 0.0 0.00 0.00 0.00 80 1013.5
20260906155829 87 185 0.0 0.0 0.00 0.00 0.00 79 1013.5
20260906155323 88 146 0.0 0.0 0.00 0.00 0.00 77 1013.7
20260906154820 89 151 0.0 0.0 0.00 0.00 0.00 77 1013.3
20260906154314 87 177 1.0 1.0 0.00 0.00 0.00 80 1013.2
20260906153812 85 187 0.0 0.0 0.00 0.00 0.00 82 1013.3
20260906153307 86 172 0.0 1.0 0.00 0.00 0.00 81 1013.5
20260906152802 87 157 0.0 0.0 0.00 0.00 0.00 79 1013.4
20260906152257 87 246 3.0 3.0 0.00 0.00 0.00 78 1013.5
20260906151756 86 154 0.0 0.0 0.00 0.00 0.00 80 1013.3
20260906151252 88 169 0.0 0.0 0.00 0.00 0.00 78 1013.1
20260906150747 87 134 0.0 0.0 0.00 0.00 0.00 80 1013.4
20260906150243 86 156 0.0 1.0 0.00 0.00 0.00 81 1013.2
20260906145741 86 144 0.0 0.0 0.00 0.00 0.00 82 1013.6
20260906145240 85 152 0.0 0.0 0.00 0.00 0.00 82 1013.3
20260906144736 85 137 2.0 3.0 0.00 0.00 0.00 82 1013.6
20260906144230 84 159 2.0 2.0 0.00 0.00 0.00 83 1013.2
20260906143730 84 144 0.0 1.0 0.00 0.00 0.00 83 1013.2
20260906143227 84 144 0.0 0.0 0.00 0.00 0.00 83 1013.1
20260906142727 85 149 0.0 0.0 0.00 0.00 0.00 82 1013.5
20260906142222 84 127 0.0 0.0 0.00 0.00 0.00 83 1013.5
20260906141721 83 154 0.0 0.0 0.00 0.00 0.00 85 1013.3
20260906141216 83 148 0.0 0.0 0.00 0.00 0.00 85 1013.4
20260906140715 83 148 0.0 0.0 0.00 0.00 0.00 85 1013.5
20260906140210 83 135 0.0 0.0 0.00 0.00 0.00 84 1013.5
20260906135707 83 150 0.0 0.0 0.00 0.00 0.00 85 1013.3
20260906135203 83 150 0.0 0.0 0.00 0.00 0.00 85 1013.5
20260906134658 83 116 0.0 0.0 0.00 0.00 0.00 85 1013.2
20260906134153 82 147 0.0 0.0 0.00 0.00 0.00 87 1013.4
20260906133649 81 108 0.0 0.0 0.00 0.00 0.00 89 1013.1
20260906133143 80 148 0.0 0.0 0.00 0.00 0.00 91 1013.2
20260906132639 79 157 0.0 0.0 0.00 0.00 0.00 91 1013.1
20260906132135 79 159 0.0 0.0 0.00 0.00 0.00 92 1013.0
20260906131630 78 150 0.0 0.0 0.00 0.00 0.00 92 1012.9
20260906131125 78 147 0.0 0.0 0.00 0.00 0.00 93 1013.0
20260906130620 78 150 0.0 0.0 0.00 0.00 0.00 93 1012.7
20260906130115 77 149 0.0 0.0 0.00 0.00 0.00 93 1012.6
20260906125607 77 150 0.0 0.0 0.00 0.00 0.00 93 1012.7
20260906125106 77 149 0.0 0.0 0.00 0.00 0.00 93 1012.7
20260906124602 76 147 0.0 0.0 0.00 0.00 0.00 94 1012.6
20260906124057 76 146 0.0 0.0 0.00 0.00 0.00 94 1012.5
20260906123556 76 154 0.0 0.0 0.00 0.00 0.00 94 1012.5
20260906123051 76 152 0.0 0.0 0.00 0.00 0.00 94 1012.3
20260906122550 76 139 0.0 0.0 0.00 0.00 0.00 94 1012.5
20260906122046 76 140 0.0 0.0 0.00 0.00 0.00 94 1012.1
20260906121542 76 146 0.0 0.0 0.00 0.00 0.00 93 1012.2
20260906121039 76 146 0.0 0.0 0.00 0.00 0.00 93 1012.2
20260906120534 76 146 0.0 0.0 0.00 0.00 0.00 93 1012.1
20260906120031 76 135 0.0 0.0 0.00 0.00 0.00 93 1012.2
20260906115530 76 143 0.0 0.0 0.00 0.00 0.00 93 1012.1
20260906115026 76 147 0.0 0.0 0.00 0.00 0.00 93 1012.2
20260906114520 76 148 0.0 0.0 0.00 0.00 0.00 93 1012.0
20260906114016 76 150 0.0 0.0 0.00 0.00 0.00 93 1012.1
20260906113514 76 150 0.0 0.0 0.00 0.00 0.00 93 1012.1
20260906113010 76 150 0.0 0.0 0.00 0.00 0.00 93 1012.1
20260906112505 76 152 0.0 0.0 0.00 0.00 0.00 93 1011.8
20260906112002 76 150 0.0 0.0 0.00 0.00 0.00 93 1011.9
20260906111501 76 150 0.0 0.0 0.00 0.00 0.00 93 1011.9
20260906110955 76 146 0.0 0.0 0.00 0.00 0.00 93 1011.8
20260906110450 76 150 0.0 0.0 0.00 0.00 0.00 93 1011.4
20260906105949 76 140 0.0 0.0 0.00 0.00 0.00 93 1011.3
20260906105445 76 146 0.0 0.0 0.00 0.00 0.00 93 1011.4
20260906104942 76 148 0.0 0.0 0.00 0.00 0.00 93 1011.2
20260906104440 76 141 0.0 0.0 0.00 0.00 0.00 93 1011.3
20260906103939 76 146 0.0 0.0 0.00 0.00 0.00 93 1011.1
20260906103438 76 137 0.0 0.0 0.00 0.00 0.00 93 1011.1
20260906102933 76 152 0.0 0.0 0.00 0.00 0.00 93 1011.2
20260906102433 76 152 0.0 0.0 0.00 0.00 0.00 93 1011.3
20260906101927 76 146 0.0 0.0 0.00 0.00 0.00 93 1011.4
20260906101423 76 145 0.0 0.0 0.00 0.00 0.00 93 1011.3
20260906100918 76 154 0.0 0.0 0.00 0.00 0.00 93 1011.2
20260906100418 76 151 0.0 0.0 0.00 0.00 0.00 93 1011.3
20260906095912 76 134 0.0 0.0 0.00 0.00 0.00 93 1011.2
20260906095408 76 140 0.0 0.0 0.00 0.00 0.00 93 1011.1
20260906094902 77 142 0.0 0.0 0.00 0.00 0.00 93 1011.4
20260906094357 77 146 0.0 0.0 0.00 0.00 0.00 93 1011.2
20260906093853 77 151 0.0 0.0 0.00 0.00 0.00 93 1011.0
20260906093349 77 154 0.0 0.0 0.00 0.00 0.00 93 1010.8
20260906092849 77 129 0.0 0.0 0.00 0.00 0.00 93 1011.0
20260906092343 77 147 0.0 0.0 0.00 0.00 0.00 93 1011.1
20260906091839 77 147 0.0 0.0 0.00 0.00 0.00 93 1011.2
20260906091335 77 143 0.0 0.0 0.00 0.00 0.00 93 1011.2
20260906090832 77 147 0.0 0.0 0.00 0.00 0.00 93 1011.1
20260906090330 77 144 0.0 0.0 0.00 0.00 0.00 93 1011.0
20260906085831 77 153 0.0 0.0 0.00 0.00 0.00 93 1011.1
20260906085330 77 143 0.0 0.0 0.00 0.00 0.00 93 1010.9
20260906084825 77 142 0.0 0.0 0.00 0.00 0.00 93 1011.0
20260906084325 77 115 0.0 0.0 0.00 0.00 0.00 93 1011.1
20260906083819 77 153 0.0 0.0 0.00 0.00 0.00 93 1011.3
20260906083314 77 151 0.0 0.0 0.00 0.00 0.00 93 1011.3
20260906082809 77 150 0.0 0.0 0.00 0.00 0.00 92 1011.2
20260906082306 77 147 0.0 0.0 0.00 0.00 0.00 92 1011.3
20260906081800 77 151 0.0 0.0 0.00 0.00 0.00 92 1010.9
20260906081256 77 138 0.0 0.0 0.00 0.00 0.00 92 1011.0
20260906080752 77 147 0.0 0.0 0.00 0.00 0.00 92 1011.4
20260906080248 77 134 0.0 0.0 0.00 0.00 0.00 92 1011.3
20260906075741 77 148 0.0 0.0 0.00 0.00 0.00 92 1011.2
20260906075236 77 142 0.0 0.0 0.00 0.00 0.00 92 1011.4
20260906074731 77 151 0.0 0.0 0.00 0.00 0.00 92 1011.2
20260906074231 77 148 0.0 0.0 0.00 0.00 0.00 92 1011.3
20260906073730 77 140 0.0 0.0 0.00 0.00 0.00 92 1011.4
20260906073225 77 146 0.0 0.0 0.00 0.00 0.00 92 1011.5
20260906072721 77 117 0.0 0.0 0.00 0.00 0.00 92 1011.7
20260906072216 77 148 0.0 0.0 0.00 0.00 0.00 92 1011.5
20260906071712 77 154 0.0 0.0 0.00 0.00 0.00 92 1011.2
20260906071212 77 147 0.0 0.0 0.00 0.00 0.00 92 1011.4
20260906070709 77 143 0.0 0.0 0.00 0.00 0.00 92 1011.3
20260906070204 77 146 0.0 0.0 0.00 0.00 0.00 92 1011.5
20260906065704 77 143 0.0 0.0 0.00 0.00 0.00 92 1011.3
20260906065159 77 148 0.0 0.0 0.00 0.00 0.00 92 1011.6
20260906064655 77 151 0.0 0.0 0.00 0.00 0.00 92 1011.4
20260906064150 77 149 0.0 0.0 0.00 0.00 0.00 91 1011.6
20260906063645 77 134 0.0 0.0 0.00 0.00 0.00 91 1011.4
20260906063141 77 147 0.0 0.0 0.00 0.00 0.00 91 1011.3
20260906062637 77 152 0.0 0.0 0.00 0.00 0.00 91 1011.5
20260906062135 77 162 0.0 0.0 0.00 0.00 0.00 91 1011.5
20260906061632 77 152 0.0 0.0 0.00 0.00 0.00 91 1011.4
20260906061131 77 152 0.0 0.0 0.00 0.00 0.00 91 1011.4
20260906060628 77 145 0.0 0.0 0.00 0.00 0.00 91 1011.3
20260906060125 77 150 0.0 0.0 0.00 0.00 0.00 91 1011.6
20260906055621 77 153 0.0 0.0 0.00 0.00 0.00 91 1011.3
20260906055115 77 133 0.0 0.0 0.00 0.00 0.00 91 1011.4
20260906054610 77 148 0.0 0.0 0.00 0.00 0.00 91 1011.5
20260906054106 77 159 0.0 0.0 0.00 0.00 0.00 91 1011.2
20260906053602 77 150 0.0 0.0 0.00 0.00 0.00 91 1011.6
20260906053057 77 152 0.0 0.0 0.00 0.00 0.00 91 1011.5
20260906052552 77 154 0.0 0.0 0.00 0.00 0.00 91 1011.4
20260906052049 77 151 0.0 0.0 0.00 0.00 0.00 91 1011.3
20260906051545 77 153 0.0 0.0 0.00 0.00 0.00 91 1011.5
20260906051040 77 156 0.0 0.0 0.00 0.00 0.00 91 1011.2
20260906050535 77 149 0.0 0.0 0.00 0.00 0.00 91 1011.4
20260906050030 77 164 0.0 0.0 0.00 0.00 0.00 91 1011.4
20260906045528 77 154 0.0 0.0 0.00 0.00 0.00 91 1011.4
20260906045024 77 152 0.0 0.0 0.00 0.00 0.00 91 1011.3
20260906044520 77 151 0.0 0.0 0.00 0.00 0.00 91 1011.5
20260906044015 77 151 0.0 0.0 0.00 0.00 0.00 91 1011.6
20260906043511 77 151 0.0 0.0 0.00 0.00 0.00 91 1011.4
20260906043007 77 154 0.0 0.0 0.00 0.00 0.00 91 1011.5
20260906042505 77 151 0.0 0.0 0.00 0.00 0.00 91 1011.3
20260906042005 77 151 0.0 0.0 0.00 0.00 0.00 91 1011.2
20260906041502 77 163 0.0 0.0 0.00 0.00 0.00 91 1011.1
20260906041001 77 161 0.0 0.0 0.00 0.00 0.00 91 1011.3
20260906040456 77 149 0.0 0.0 0.00 0.00 0.00 91 1011.3
20260906035951 77 156 0.0 0.0 0.00 0.00 0.00 91 1011.3
20260906035447 77 155 0.0 0.0 0.00 0.00 0.00 91 1011.5
20260906034942 77 143 0.0 0.0 0.00 0.00 0.00 91 1011.3
20260906034437 77 149 0.0 0.0 0.00 0.00 0.00 91 1011.5
20260906033933 77 120 0.0 0.0 0.00 0.00 0.00 91 1011.5
20260906033433 77 150 0.0 0.0 0.00 0.00 0.00 91 1011.3
20260906032928 77 158 0.0 0.0 0.00 0.00 0.00 91 1011.5
20260906032425 77 140 0.0 0.0 0.00 0.00 0.00 91 1011.5
20260906031919 77 153 0.0 0.0 0.00 0.00 0.00 91 1011.4
20260906031414 77 150 0.0 0.0 0.00 0.00 0.00 91 1011.5
20260906030909 77 147 1.0 1.0 0.00 0.00 0.00 91 1011.6
20260906030404 77 150 0.0 0.0 0.00 0.00 0.00 91 1011.3
20260906025858 77 148 0.0 0.0 0.00 0.00 0.00 91 1011.4
20260906025353 77 152 0.0 0.0 0.00 0.00 0.00 91 1011.6
20260906024852 77 135 0.0 0.0 0.00 0.00 0.00 91 1011.5
20260906024351 77 97 0.0 0.0 0.00 0.00 0.00 91 1011.3
20260906023846 77 139 0.0 0.0 0.00 0.00 0.00 91 1011.0
20260906023343 77 146 0.0 0.0 0.00 0.00 0.00 90 1011.2
20260906022837 77 145 0.0 0.0 0.00 0.00 0.00 90 1010.9
20260906022338 77 144 0.0 0.0 0.00 0.00 0.00 90 1011.0
20260906021833 78 156 0.0 0.0 0.00 0.00 0.00 90 1010.9
20260906021333 77 149 0.0 0.0 0.00 0.00 0.00 90 1010.9
20260906020828 77 139 0.0 0.0 0.00 0.00 0.00 90 1010.7
20260906020327 77 129 0.0 0.0 0.00 0.00 0.00 90 1010.9
20260906015822 78 138 0.0 0.0 0.00 0.00 0.00 90 1010.9
20260906015320 78 147 0.0 0.0 0.00 0.00 0.00 90 1010.8
20260906014815 78 146 0.0 0.0 0.00 0.00 0.00 90 1010.4
20260906014310 78 148 0.0 0.0 0.00 0.00 0.00 90 1010.8
20260906013806 78 139 0.0 0.0 0.00 0.00 0.00 90 1010.6
20260906013301 78 147 0.0 0.0 0.00 0.00 0.00 90 1010.9
20260906012756 78 111 0.0 0.0 0.00 0.00 0.00 90 1010.6
20260906012251 78 109 0.0 0.0 0.00 0.00 0.00 90 1010.6
20260906011746 78 128 0.0 0.0 0.00 0.00 0.00 90 1010.8
20260906011246 78 140 0.0 0.0 0.00 0.00 0.00 90 1010.5
20260906010742 78 149 0.0 0.0 0.00 0.00 0.00 90 1010.6
20260906010238 78 147 0.0 0.0 0.00 0.00 0.00 90 1010.5
20260906005733 78 143 0.0 0.0 0.00 0.00 0.00 90 1010.4
20260906005232 78 154 0.0 0.0 0.00 0.00 0.00 90 1010.2
20260906004731 78 144 0.0 0.0 0.00 0.00 0.00 90 1010.6
20260906004227 78 128 3.0 3.0 0.00 0.00 0.00 90 1010.6
20260906003722 78 130 0.0 1.0 0.00 0.00 0.00 90 1010.4
20260906003217 78 135 1.0 1.0 0.00 0.00 0.00 90 1010.6
20260906002717 78 131 1.0 1.0 0.00 0.00 0.00 90 1010.5
20260906002212 78 61 2.0 5.0 0.00 0.00 0.00 90 1010.5
20260906001707 78 159 0.0 0.0 0.00 0.00 0.00 90 1010.7
20260906001207 79 166 0.0 0.0 0.00 0.00 0.00 90 1010.6
20260906000703 79 139 0.0 0.0 0.00 0.00 0.00 90 1010.9
20260906000158 79 140 0.0 1.0 0.00 0.00 0.00 90 1010.9
20260905235657 79 138 0.0 0.0 0.00 0.00 0.00 89 1010.9
20260905235152 80 152 0.0 0.0 0.00 0.00 0.00 89 1011.0
20260905234647 80 147 0.0 0.0 0.00 0.00 0.00 88 1011.3
20260905234143 80 148 0.0 0.0 0.00 0.00 0.00 88 1011.4
20260905233638 80 132 0.0 0.0 0.00 0.00 0.00 88 1011.2
20260905233137 80 149 0.0 0.0 0.00 0.00 0.00 88 1011.3
20260905232633 80 146 0.0 0.0 0.00 0.00 0.00 87 1011.2
20260905232128 80 113 4.0 7.0 0.00 0.00 0.00 87 1011.2
20260905231623 80 96 3.0 5.0 0.00 0.00 0.00 86 1011.3
20260905231119 80 123 0.0 1.0 0.00 0.00 0.00 86 1011.2
20260905230615 80 146 0.0 1.0 0.00 0.00 0.00 85 1011.2
20260905230113 80 107 0.0 0.0 0.00 0.00 0.00 85 1011.1
20260905225612 80 47 0.0 0.0 0.00 0.00 0.00 84 1011.1
20260905225108 81 128 1.0 2.0 0.00 0.00 0.00 84 1011.1
20260905224608 82 115 0.0 1.0 0.00 0.00 0.00 84 1010.7
20260905224107 82 52 2.0 2.0 0.00 0.00 0.00 83 1010.7
20260905223604 82 20 1.0 1.0 0.00 0.00 0.00 84 1010.7
20260905223101 81 74 0.0 1.0 0.00 0.00 0.00 86 1011.2
20260905222600 80 113 0.0 0.0 0.00 0.00 0.00 87 1011.1
20260905222055 81 143 0.0 0.0 0.00 0.00 0.00 87 1011.0
20260905221552 81 154 0.0 0.0 0.00 0.00 0.00 87 1010.7
20260905221048 81 151 0.0 0.0 0.00 0.00 0.00 87 1010.7
20260905220543 80 150 0.0 0.0 0.00 0.00 0.00 87 1010.8
20260905220039 80 144 0.0 0.0 0.00 0.00 0.00 87 1010.8
20260905215538 79 145 0.0 0.0 0.00 0.00 0.00 87 1010.6
20260905215035 78 155 0.0 0.0 0.00 0.00 0.00 87 1010.6
20260905214530 80 153 0.0 0.0 0.00 0.00 0.00 87 1010.6
20260905214025 79 153 0.0 0.0 0.00 0.00 0.00 87 1010.6
20260905213520 78 148 0.0 0.0 0.00 0.00 0.00 86 1010.7
20260905213016 79 144 0.0 0.0 0.00 0.00 0.00 86 1010.8
20260905212511 80 140 0.0 0.0 0.00 0.00 0.00 85 1010.8
20260905212010 81 144 0.0 1.0 0.00 0.00 0.00 84 1011.1
20260905211506 84 109 1.0 3.0 0.00 0.00 0.00 77 1011.1
20260905211001 87 127 4.0 5.0 0.00 0.00 0.00 69 1011.2
20260905210457 88 131 3.0 3.0 0.00 0.00 0.00 68 1010.8
20260905205956 90 106 3.0 3.0 0.00 0.00 0.00 67 1010.7
20260905205451 91 104 3.0 6.0 0.00 0.00 0.00 65 1010.6
20260905204949 95 218 2.0 2.0 0.00 0.00 0.00 60 1010.6
20260905204445 101 147 3.0 3.0 0.00 0.00 0.00 47 1010.7
20260905203945 102 156 0.0 0.0 0.00 0.00 0.00 43 1010.4
20260905203440 101 298 4.0 6.0 0.00 0.00 0.00 43 1010.4
20260905202936 100 184 2.0 3.0 0.00 0.00 0.00 44 1010.5
20260905202431 101 184 2.0 2.0 0.00 0.00 0.00 46 1010.4
20260905201926 98 183 1.0 2.0 0.00 0.00 0.00 46 1010.4
20260905201421 96 159 4.0 5.0 0.00 0.00 0.00 48 1010.4
20260905200921 99 187 2.0 3.0 0.00 0.00 0.00 45 1010.8
20260905200417 100 198 3.0 3.0 0.00 0.00 0.00 46 1010.7
20260905195915 100 207 4.0 5.0 0.00 0.00 0.00 45 1010.7
20260905195411 96 160 0.0 1.0 0.00 0.00 0.00 49 1010.6
20260905194906 95 120 1.0 2.0 0.00 0.00 0.00 50 1010.6
20260905194406 97 183 0.0 0.0 0.00 0.00 0.00 47 1010.9
20260905193906 98 162 1.0 1.0 0.00 0.00 0.00 48 1010.8
20260905193401 98 170 1.0 2.0 0.00 0.00 0.00 47 1010.9
20260905192856 96 161 0.0 1.0 0.00 0.00 0.00 50 1010.9
20260905192351 95 234 1.0 2.0 0.00 0.00 0.00 49 1011.0
20260905191851 96 173 1.0 2.0 0.00 0.00 0.00 50 1011.0
20260905191350 96 176 0.0 0.0 0.00 0.00 0.00 51 1011.1
20260905190850 97 213 2.0 2.0 0.00 0.00 0.00 50 1011.3
20260905190348 96 240 1.0 2.0 0.00 0.00 0.00 52 1011.3
20260905185847 97 272 3.0 5.0 0.00 0.00 0.00 51 1011.4
20260905185343 97 237 3.0 3.0 0.00 0.00 0.00 50 1011.6
20260905184842 95 198 2.0 2.0 0.00 0.00 0.00 51 1011.5
20260905184341 96 229 1.0 2.0 0.00 0.00 0.00 52 1011.6
20260905183839 97 161 0.0 1.0 0.00 0.00 0.00 51 1011.7
20260905183335 96 150 2.0 3.0 0.00 0.00 0.00 52 1011.8
20260905182830 95 164 0.0 0.0 0.00 0.00 0.00 53 1011.9
20260905182329 96 285 1.0 3.0 0.00 0.00 0.00 52 1012.1
20260905181825 95 221 2.0 3.0 0.00 0.00 0.00 54 1012.2
20260905181324 96 181 1.0 2.0 0.00 0.00 0.00 54 1012.2
20260905180823 94 175 1.0 1.0 0.00 0.00 0.00 55 1012.5
20260905180319 94 166 2.0 2.0 0.00 0.00 0.00 56 1012.1
20260905175814 96 160 3.0 3.0 0.00 0.00 0.00 55 1012.3
20260905175308 95 220 3.0 3.0 0.00 0.00 0.00 55 1012.3
20260905174803 95 237 3.0 5.0 0.00 0.00 0.00 57 1012.8
20260905174259 95 275 3.0 3.0 0.00 0.00 0.00 57 1012.8
20260905173755 95 169 2.0 3.0 0.00 0.00 0.00 58 1012.8
20260905173250 96 218 2.0 2.0 0.00 0.00 0.00 56 1012.6
20260905172750 96 147 4.0 5.0 0.00 0.00 0.00 55 1012.9
20260905172249 94 165 3.0 3.0 0.00 0.00 0.00 57 1013.1
20260905171745 96 244 5.0 6.0 0.00 0.00 0.00 55 1013.2
20260905171242 93 122 1.0 2.0 0.00 0.00 0.00 59 1013.0
20260905170738 94 277 4.0 5.0 0.00 0.00 0.00 58 1013.1
20260905170233 93 159 2.0 2.0 0.00 0.00 0.00 60 1013.2
20260905165732 95 238 4.0 5.0 0.00 0.00 0.00 57 1013.4
20260905165228 94 245 0.0 2.0 0.00 0.00 0.00 59 1013.3
20260905164727 93 171 2.0 2.0 0.00 0.00 0.00 60 1013.3
20260905164222 94 174 3.0 3.0 0.00 0.00 0.00 58 1013.3
20260905163719 94 245 3.0 3.0 0.00 0.00 0.00 59 1013.3
20260905163214 93 169 0.0 0.0 0.00 0.00 0.00 60 1013.4
20260905162711 94 221 4.0 6.0 0.00 0.00 0.00 58 1013.5